STARLINK-1116 (44947 NORAD) Tracking and Keplerian Element Data

This shows tracking and keplerian element data for the satellite.

Feedback or suggestion? Click here.




ElementValue
Catalog44947
NameSTARLINK-1116
Epoch Orbit654
Epoch Day48.58334491
Epoch Year2020
RAAN190.4448
Inclination52.9955
Eccentricity0.0001524
Argument of Perigee39.3715
Mean Anonmoly267.3269
Mean Motion15.7322021
Decay Rate-0.00015522
L11 44947U 20001AK 20048.58334491 -.00015522 00000-0 -10625-3 0 9996
L22 44947 52.9955 190.4448 0001524 39.3715 267.3269 15.73220210 6548

Live tracking and technical data element details for STARLINK-1116 (NORAD 44947). STARLINK-1116 can be tracked NOW for your location showing map with azimuth and elevation plus other details from your city location.

Track the satellite on the map from your city or location and see movement details for azimuth, elevation, latitude, longitude, range, height, and movement on the map or in text.







IsCatalogInMostPopularTable: catalog: 44947, numindb: 8
Update: records affected: 1



GetName: 44947 STARLINK-1116

Hit Count: updated at: Tue, 18 Feb 2020 00:59:23 GMT